Location: Unspecified
(0.0000°N, 0.0000°E)
Time: 18:59:02
(UTC+00:00)

Tiros 1 despin weight - Pass Details

Date: 19 November 2019
Orbit: 594 x 642 km, 48.2° (Epoch: 08 December)

Event Time Altitude Azimuth Distance (km) Brightness Sun altitude
Rises 21:08:05 0° 336° (NNW) 2,886 - -46.8°
Reaches altitude 10° 21:10:32 10° 346° (NNW) 1,990 - -47.3°
Maximum altitude 21:14:42 34° 51° (NE) 1,038 - -48.2°
Drops below altitude 10° 21:18:55 10° 116° (ESE) 2,019 - -49.1°
Sets 21:21:26 0° 125° (SE) 2,934 - -49.7°
